DW9608 Weather Reports


time (UTC)temp
F
wind
direction
speed
knots
gust
knots
rain 1hr
in
rain 24hr
in
rain mn
in
humidity
%
barometer
mb
20260508105421 46 0.0 0.0 0.00 0.00 0.00 79 1014.4
20260508104346 0 113 0.9 1.7 0.00 0.00 0.00 1014.4
20260508103326 45 0.0 0.0 0.00 0.00 0.00 81 1014.4
20260508102251 44 0.0 0.0 0.00 0.00 0.00 84 1014.5
20260508101248 43 0.0 0.0 0.00 0.00 0.00 86 1014.4
20260508100151 43 0.0 0.0 0.00 0.00 0.00 86 1014.3
20260508095132 42 0.0 0.0 0.00 0.00 0.00 86 1014.5
20260508094115 42 0.0 0.0 0.00 0.00 0.00 85 1014.5
20260508093031 42 0.0 0.0 0.00 0.00 0.00 85 1014.5
20260508091949 42 0.0 0.0 0.00 0.00 0.00 84 1014.6
20260508090920 42 0.0 0.0 0.00 0.00 0.00 84 1014.6
20260508085858 42 0.0 0.0 0.00 0.00 0.00 84 1014.8
20260508084905 43 0.0 0.0 0.00 0.00 0.00 83 1014.8
20260508083801 43 0.0 0.0 0.00 0.00 0.00 82 1014.8
20260508082723 0 0.0 0.0 0.00 0.00 0.00 1014.8
20260508081648 43 0.0 0.0 0.00 0.00 0.00 80 1014.8
20260508080631 44 0.0 0.0 0.00 0.00 0.00 79 1014.8
20260508075554 44 0.0 0.0 0.00 0.00 0.00 78 1014.8
20260508074529 45 0.0 0.0 0.00 0.00 0.00 79 1014.8
20260508073451 46 135 0.9 0.9 0.00 0.00 0.00 79 1014.9
20260508072426 46 0.0 0.0 0.00 0.00 0.00 77 1015.0
20260508071358 46 0.9 3.5 0.00 0.00 0.00 77 1015.1
20260508070332 46 135 1.7 1.7 0.00 0.00 0.00 75 1015.1
20260508065257 46 135 1.7 2.6 0.00 0.00 0.00 74 1015.0
20260508064220 46 135 1.7 2.6 0.00 0.00 0.00 76 1015.0
20260508063155 45 0.0 0.0 0.00 0.00 0.00 77 1015.0
20260508062126 45 0.0 0.0 0.00 0.00 0.00 76 1015.0
20260508061049 45 0.0 0.0 0.00 0.00 0.00 76 1015.0
20260508060025 45 0.0 0.0 0.00 0.00 0.00 76 1015.0
20260508055007 45 0.0 0.0 0.00 0.00 0.00 76 1015.3
20260508053923 45 0.0 0.0 0.00 0.00 0.00 76 1015.5
20260508052846 0 0.0 0.0 0.00 0.00 0.00 1015.5
20260508051823 45 135 0.9 1.7 0.00 0.00 0.00 76 1015.5
20260508050750 45 0.0 0.0 0.00 0.00 0.00 75 1015.5
20260508045728 45 0.0 0.0 0.00 0.00 0.00 75 1015.7
20260508044650 45 0.0 0.0 0.00 0.00 0.00 75 1015.5
20260508043632 45 0.0 0.0 0.00 0.00 0.00 75 1015.7
20260508042549 45 0.0 0.0 0.00 0.00 0.00 75 1015.7
20260508041519 45 0.0 0.0 0.00 0.00 0.00 74 1015.7
20260508040459 44 0.0 0.0 0.00 0.00 0.00 74 1015.7
20260508035420 44 0.0 0.0 0.00 0.00 0.00 75 1015.8
20260508034222 43 0.0 0.0 0.00 0.00 0.00 75 1015.8
20260508033206 43 0.0 1.7 0.00 0.00 0.00 74 1015.8
20260508032118 42 135 0.9 1.7 0.00 0.00 0.00 77 1015.8
20260508031057 41 0.0 0.0 0.00 0.00 0.00 78 1015.7
20260508030033 41 0.0 0.0 0.00 0.00 0.00 77 1015.8
20260508024959 41 0.0 0.0 0.00 0.00 0.00 78 1015.8
20260508023922 41 0.0 1.7 0.00 0.00 0.00 77 1015.8
20260508022900 41 0.0 0.0 0.00 0.00 0.00 77 1015.8
20260508021827 42 0.0 0.0 0.00 0.00 0.00 76 1015.5
20260508020805 42 135 0.0 0.9 0.00 0.00 0.00 76 1015.5
20260508015726 43 0.0 0.0 0.00 0.00 0.00 73 1015.5
20260508014649 43 0.0 0.0 0.00 0.00 0.00 72 1015.5
20260508013718 44 0.0 0.0 0.00 0.00 0.00 69 1015.3
20260508012552 45 0.0 0.0 0.00 0.00 0.00 66 1015.3
20260508011532 46 0.0 0.0 0.00 0.00 0.00 65 1015.3
20260508010457 47 0.0 0.0 0.00 0.00 0.00 62 1015.1
20260508005423 48 0.0 0.0 0.00 0.00 0.00 58 1015.1
20260508004346 49 0.0 0.0 0.00 0.00 0.00 56 1015.1
20260508003335 50 0.0 0.0 0.00 0.00 0.00 51 1015.1
20260508002311 52 0.0 0.0 0.00 0.00 0.00 48 1015.0
20260508001229 53 0.0 0.9 0.00 0.00 0.00 46 1014.9
20260508000154 53 0.0 0.0 0.00 0.00 0.00 45 1014.8
20260507235119 54 135 1.7 1.7 0.00 0.00 0.00 44 1014.8
20260507234100 54 135 0.9 2.6 0.00 0.00 0.00 44 1014.8
20260507233020 55 162 1.7 3.5 0.00 0.00 0.00 43 1014.6
20260507232001 55 113 1.7 1.7 0.00 0.00 0.00 42 1014.6
20260507230944 55 158 1.7 2.6 0.00 0.00 0.00 41 1014.9
20260507225848 56 158 1.7 1.7 0.00 0.00 0.00 42 1014.9
20260507224825 56 234 1.7 2.6 0.00 0.00 0.00 42 1014.9
20260507223811 56 135 1.7 1.7 0.00 0.00 0.00 42 1014.9
20260507222742 56 113 1.7 2.6 0.00 0.00 0.00 42 1014.8
20260507221657 56 242 1.7 2.6 0.00 0.00 0.00 40 1015.0
20260507220649 57 188 1.7 2.6 0.00 0.00 0.00 41 1014.8
20260507215554 56 247 1.7 2.6 0.00 0.00 0.00 39 1014.8
20260507214539 57 158 1.7 2.6 0.00 0.00 0.00 42 1014.8
20260507213507 56 203 2.6 3.5 0.00 0.00 0.00 42 1014.6
20260507212427 56 285 1.7 2.6 0.00 0.00 0.00 45 1014.8
20260507211350 56 270 3.5 3.5 0.00 0.00 0.00 47 1014.6
20260507210332 57 221 1.7 2.6 0.00 0.00 0.00 50 1014.4
20260507205249 56 135 2.6 2.6 0.00 0.00 0.00 51 1014.4
20260507204228 55 135 1.7 2.6 0.00 0.00 0.00 53 1014.4
20260507203153 53 158 0.9 2.6 0.00 0.00 0.00 56 1014.4
20260507202123 53 158 1.7 2.6 0.00 0.00 0.00 55 1014.4
20260507201051 54 254 1.7 2.6 0.00 0.00 0.00 54 1014.4
20260507200028 55 235 2.6 4.3 0.00 0.00 0.00 53 1014.1
20260507195007 56 113 1.7 2.6 0.00 0.00 0.00 51 1014.3
20260507193921 57 6 1.7 2.6 0.00 0.00 0.00 48 1014.3
20260507192850 57 201 1.7 2.6 0.00 0.00 0.00 48 1014.3
20260507191855 57 113 1.7 2.6 0.00 0.00 0.00 48 1014.3
20260507190841 58 261 2.6 4.3 0.00 0.00 0.00 47 1014.5
20260507185734 58 158 0.9 1.7 0.00 0.00 0.00 53 1014.5
20260507184727 56 158 0.9 0.9 0.00 0.00 0.00 53 1014.5
20260507183623 56 158 1.7 1.7 0.00 0.00 0.00 56 1014.6
20260507182612 56 212 2.6 3.5 0.00 0.00 0.00 54 1014.8
20260507181524 54 135 1.7 2.6 0.00 0.00 0.00 55 1014.8
20260507180534 55 101 1.7 2.6 0.00 0.00 0.00 57 1014.6
20260507175432 54 158 1.7 2.6 0.00 0.00 0.00 53 1014.8
20260507174356 54 187 1.7 1.7 0.00 0.00 0.00 52 1014.8
20260507173340 55 135 1.7 2.6 0.00 0.00 0.00 51 1014.8
20260507172300 56 135 1.7 2.6 0.00 0.00 0.00 50 1014.8
20260507171241 56 158 1.7 2.6 0.00 0.00 0.00 51 1014.8
20260507170205 57 158 1.7 3.5 0.00 0.00 0.00 52 1014.9
20260507165126 57 158 1.7 2.6 0.00 0.00 0.00 52 1014.9
20260507164115 56 158 2.6 3.5 0.00 0.00 0.00 53 1014.9
20260507163033 56 158 1.7 2.6 0.00 0.00 0.00 55 1014.9
20260507161957 56 0.0 0.9 0.00 0.00 0.00 58 1015.0
20260507160954 53 135 1.7 2.6 0.00 0.00 0.00 59 1015.0
20260507155918 55 135 1.7 2.6 0.00 0.00 0.00 52 1015.0
20260507154823 53 135 1.7 1.7 0.00 0.00 0.00 52 1015.0
20260507153747 55 135 1.7 2.6 0.00 0.00 0.00 52 1015.0
20260507152723 56 135 1.7 1.7 0.00 0.00 0.00 50 1015.0
20260507151648 57 135 1.7 1.7 0.00 0.00 0.00 52 1015.3
20260507150630 56 135 0.9 1.7 0.00 0.00 0.00 53 1015.1
20260507145613 54 135 0.9 1.7 0.00 0.00 0.00 57 1015.1
20260507144541 54 0.0 0.0 0.00 0.00 0.00 53 1015.1
20260507143500 55 135 1.7 1.7 0.00 0.00 0.00 56 1015.3
20260507142429 54 135 0.9 1.7 0.00 0.00 0.00 55 1015.3
20260507141411 54 135 1.7 1.7 0.00 0.00 0.00 59 1015.3
20260507140330 54 0.0 0.9 0.00 0.00 0.00 63 1015.5
20260507135248 53 0.9 1.7 0.00 0.00 0.00 64 1015.7
20260507134224 53 0.0 1.7 0.00 0.00 0.00 65 1015.7
20260507133202 53 0.0 0.0 0.00 0.00 0.00 66 1015.8
20260507132125 51 0.0 0.0 0.00 0.00 0.00 66 1015.8
20260507131101 52 0.0 0.0 0.00 0.00 0.00 70 1015.8
20260507130031 50 135 0.0 0.9 0.00 0.00 0.00 70 1015.8
20260507125031 50 0.0 0.0 0.00 0.00 0.00 69 1015.8
20260507123948 50 0.9 1.7 0.00 0.00 0.00 71 1015.8
20260507122859 49 0.0 0.0 0.00 0.00 0.00 68 1015.8
20260507121823 48 0.0 0.0 0.00 0.00 0.00 70 1015.7
20260507120746 48 135 0.9 1.7 0.00 0.00 0.00 69 1015.7
20260507115725 47 135 1.7 1.7 0.00 0.00 0.00 69 1015.7
20260507114648 47 135 0.0 0.9 0.00 0.00 0.00 73 1015.5
20260507113629 46 0.0 0.0 0.00 0.00 0.00 73 1015.5
20260507112549 44 0.0 0.0 0.00 0.00 0.00 77 1015.5
20260507111519 40 0.0 0.0 0.00 0.00 0.00 86 1015.5
20260507110501 39 0.0 0.0 0.00 0.00 0.00 86 1015.3